Regional Weather Roundup
Issued by NWS

Home | Current Version | Previous Version | Graphics & Text | Print | Product List | Glossary Off
Versions: 1 2 3 4 5 6 7 8 9 10 11 12 13 14 15 16 17 18 19 20 21 22 23 24 25 26 27 28 29 30 31 32 33 34 35 36 37 38 39 40 41 42 43 44 45 46 47 48 49 50

538
ASUS43 KMKX 181321
RWRWI

WISCONSIN REGIONAL WEATHER ROUNDUP
NATIONAL WEATHER SERVICE MILWAUKEE/SULLIVAN WI
800 AM CDT WED OCT 18 2017

NOTE: "FAIR" INDICATES FEW OR NO CLOUDS BELOW 12,000 FEET WITH NO
SIGNIFICANT WEATHER AND/OR OBSTRUCTIONS TO VISIBILITY.

WIZ001-002-006>008-014>016-023>028-181400-
NORTHWEST WISCONSIN

CITY           SKY/WX    TMP DP  RH WIND       PRES   REMARKS
SUPERIOR ARPT  CLEAR     51  44  77 W7        29.74S
ASHLAND        CLEAR     52  43  71 VRB5      29.78F
HAYWARD        CLEAR     51  43  74 S10       29.82S
SIREN          CLEAR     51  43  73 S9        29.79S
CUMBERLAND     CLEAR     45  41  87 S7        29.83S
RICE LAKE      CLEAR     47  43  87 SE3       29.86S
CHETEK         CLEAR     46  44  91 SE6       29.86F
LADYSMITH      CLEAR     50  44  80 S8        29.88F
EAU CLAIRE     CLEAR     50  44  80 S10       29.87F
MENOMONIE      CLEAR     48  44  85 SE3       29.87F
NEW RICHMOND   CLEAR     49  43  78 S9        29.82F
OSCEOLA        CLEAR     50  44  80 SE8       29.84S
$$

WIZ003>005-009-010-017-018-181400-
NORTH CENTRAL WISCONSIN

CITY           SKY/WX    TMP DP  RH WIND       PRES   REMARKS
MANITOWISH WTR CLEAR     46  46 100 S8        29.86F
ARBOR VITAE    CLEAR     49  45  85 S10       29.88F
WOODRUFF       CLEAR     49  45  85 S10       29.88F
RHINELANDER    CLEAR     50  44  80 SW8       29.91F
EAGLE RIVER    CLEAR     46  41  82 CALM      29.89F
LAND O LAKES   CLEAR     47  43  85 S3        29.89F
PHILLIPS       CLEAR     47  44  87 S8        29.87F
TOMAHAWK       CLEAR     41  40  95 CALM      29.91F
MEDFORD        CLEAR     46  42  85 S10       29.91F
MERRILL        CLEAR     49  44  81 S5        29.94S
$$

WIZ029-030-035-036-043>047-181400-
CENTRAL WISCONSIN

CITY           SKY/WX    TMP DP  RH WIND       PRES   REMARKS
WAUSAU         CLEAR     49  44  83 S10       29.94F
MOSINEE        CLEAR     46  45  93 S8        29.97F
MARSHFIELD     CLEAR     46  42  86 S7        29.94F
STEVENS POINT  CLEAR     48  42  80 S10       29.98S
WAUPACA        CLEAR     50  45  83 S8        30.00F
WAUTOMA        CLEAR     39  38  96 CALM      30.01F
WISC RAPIDS    CLEAR     50  43  77 S7        29.97F
CAMP DOUGLAS   CLEAR     50  45  81 SE3       29.97F
$$

WIZ011>013-019>022-031-037>040-048>050-181400-
NORTHEAST WISCONSIN

CITY           SKY/WX    TMP DP  RH WIND       PRES   REMARKS
ANTIGO         CLEAR     46  43  88 S7        29.96S
SHAWANO        CLEAR     50  44  78 SW3       29.98S
OCONTO         CLEAR     50  43  79 S6        29.99S
STURGEON BAY   CLEAR     51  43  74 S12       30.01F
GREEN BAY      CLEAR     51  47  86 S8        30.01S
MANITOWOC      CLEAR     50  44  80 S8        30.05S
APPLETON       CLEAR     48  39  71 S9        30.00F
CLINTONVILLE   CLEAR     46  43  87 CALM      29.99S
OSHKOSH        CLEAR     50  43  77 S12       30.02S
$$

WIZ032>034-041-042-053>061-181400-
SOUTHWEST WISCONSIN

CITY           SKY/WX    TMP DP  RH WIND       PRES   REMARKS
LA CROSSE      CLEAR     55  46  71 S9        29.95S
SPARTA         CLEAR     52  44  76 S9        29.97S
VIROQUA        CLEAR     49  45  86 S10       29.98F
BOSCOBEL       CLEAR     46  44  93 CALM      30.02S FOG
PRAIRIE DU CHI CLEAR     52  43  71 SE3       30.01S
PLATTEVILLE    CLEAR     49  45  85 S12       30.05S
$$

WIZ056-057-062-063-064-067-068-181400-
SOUTH CENTRAL WISCONSIN

CITY           SKY/WX    TMP DP  RH WIND       PRES   REMARKS
REEDSBURG      CLEAR     49  43  78 CALM      30.02S
BARABOO/DELLS  CLEAR     49  42  75 S10       30.02F
LONE ROCK      CLEAR     45  43  93 E3        30.04S
MINERAL POINT  CLEAR     46  45  93 SE7       30.04S
MADISON        CLEAR     49  42  77 S8        30.06S
MIDDLETON      CLEAR     49  42  75 S9        30.06S
WATERTOWN      CLEAR     48  43  81 S9        30.07S
MONROE         CLEAR     46  39  76 S16       30.07S
JANESVILLE     CLEAR     52  41  66 S8        30.09S
$$

WIZ051-052-058>065-066-070>072-181400-
SOUTHEAST WISCONSIN

CITY           SKY/WX    TMP DP  RH WIND       PRES   REMARKS
MILWAUKEE      CLEAR     51  42  71 SW12      30.11S
WAUKESHA       CLEAR     46  39  76 S5        30.10S
MILWAUKEE/TIMM CLEAR     48  37  66 S9        30.10S
RACINE         CLEAR     51  42  71 SW14      30.13S
BURLINGTON     CLEAR     47  42  84 SW5       30.12S
KENOSHA        CLEAR     50  41  71 SW9       30.13S
FOND DU LAC    CLEAR     52  40  63 S12G17    30.05R
SHEBOYGAN      CLEAR     47  44  90 S7        30.06S
WEST BEND      CLEAR     50  39  66 S7        30.07S
JUNEAU         CLEAR     48  41  76 S8        30.07S
$$

LSZ147-162-181400-
LAKE SUPERIOR

STATION/POSITION TIME  TEMP    WIND        PRES    WAVE
                       AIR SEA DIR/SP/G            HT/PER
                 (UTC) (F)     (DEG/KT/KT) (MB)    (FT/S)
W MID LAKE BUOY  1250   55 53              1006.7F   2/ 4
DEVILS ISLAND    1300   57     190/  7/ 10 1006.9F
SAXON HARBOR     1230   56     190/  9/ 17 1007.8F
$$

LMZ867-665-643>646-181400-
LAKE MICHIGAN

STATION/POSITION TIME  TEMP    WIND        PRES    WAVE
                       AIR SEA DIR/SP/G            HT/PER
                 (UTC) (F)     (DEG/KT/KT) (MB)    (FT/S)
S GREEN BAY BUOY 1300   57 58  190/ 17/ 21 1015.5F
N MID LAKE BUOY  1250   60 59  190/ 19/ 23 1016.2F   5/ 6
NORTHPORT PIER   1240   54     170/  6/  9 1015.6S
KEWAUNEE LAKESHO 1300   54     190/ 10/ 12 1016.2
SHEBOYGAN LAKESH 1300   53     200/ 12/ 13 1017.9R
PORT WASHINGTON  1230   53     230/  4/  8 1019.3F
MILWAUKEE LAKESH 1300   53     220/ 13/ 14   N/A
S MID LAKE BUOY  1250   59 61  230/ 19/ 21 1020.5R   4/ 6
KENOSHA   LAKESH 1300   53     220/ 12/ 16 1020.0
$$

TC  - TEMPERATURE IN CELSIUS
VSB - VISIBILITY IN STATUTE MILES
WCI - WIND CHILL INDEX
HX  - HEAT INDEX





USA.gov is the U.S. government's official web portal to all federal, state and local government web resources and services.